Chula Vista (153, 154, 645) Station Data

Red Flag Warning: No
Fire Weather Zone: 243
SDGE Region: Metro
Lat/Lon: 32.602/-117.058

Observations

Time Wind Speed/Gust Temp(F) RH Fuel Moist Fuel Temp(F) Dewpt(F) Tmax(F) Tmin(F) Accum Precip 10-min Precip SL Press(mb)
6/27 5:10pm 263 7 G 11 71° 68% - - 60° 74.9° 61.9° - - -
6/27 5:00pm 267 9 G 13 71° 68% - - 60° 74.9° 61.9° - - -
6/27 4:50pm 271 8 G 11 71° 68% - - 60° 74.9° 61.9° - - -
6/27 4:40pm 270 7 G 11 72° 66% - - 60° 74.9° 61.9° - - -
6/27 4:30pm 250 7 G 11 73° 64% - - 60° 74.9° 61.9° - - -
6/27 4:20pm 253 7 G 11 73° 63% - - 59° 74.9° 61.9° - - -
6/27 4:10pm 265 7 G 12 73° 63% - - 59° 74.9° 61.9° - - -
6/27 4:00pm 251 7 G 10 73° 65% - - 60° 74.9° 61.9° - - -
6/27 3:50pm 267 7 G 12 73° 66% - - 61° 74.9° 61.9° - - -
6/27 3:40pm 266 7 G 10 72° 68% - - 61° 74.9° 61.9° - - -
6/27 3:30pm 264 7 G 11 72° 69% - - 61° 74.9° 61.9° - - -
6/27 3:20pm 249 7 G 12 72° 69% - - 62° 74.9° 61.9° - - -
6/27 3:10pm 280 9 G 12 72° 72% - - 63° 74.9° 61.9° - - -
6/27 3:00pm 268 8 G 13 73° 70% - - 63° 74.9° 61.9° - - -
6/27 2:50pm 264 8 G 13 72° 70% - - 62° 74.9° 61.9° - - -
6/27 2:40pm 255 9 G 13 73° 69% - - 62° 74.9° 61.9° - - -
6/27 2:30pm 264 10 G 15 73° 69% - - 62° 74.9° 61.9° - - -
6/27 2:20pm 260 10 G 14 73° 69% - - 62° 74.9° 61.9° - - -
6/27 2:10pm 269 9 G 14 72° 70% - - 62° 74.9° 61.9° - - -
6/27 2:00pm 271 10 G 13 73° 69% - - 62° 74.9° 61.9° - - -
6/27 1:50pm 264 10 G 14 73° 70% - - 62° 74.9° 61.9° - - -
6/27 1:40pm 258 9 G 13 73° 69% - - 62° 74.9° 61.9° - - -
6/27 1:30pm 271 10 G 13 73° 69% - - 62° 74.9° 61.9° - - -
6/27 1:20pm 255 9 G 13 73° 67% - - 62° 74.9° 61.9° - - -
6/27 1:10pm 266 9 G 12 74° 67% - - 62° 74.9° 61.9° - - -
6/27 1:00pm 265 9 G 14 74° 66% - - 62° 74.9° 61.9° - - -
6/27 12:50pm 279 9 G 11 73° 66% - - 61° 74.7° 61.9° - - -
6/27 12:40pm 272 9 G 13 73° 67% - - 62° 74.7° 61.9° - - -
6/27 12:30pm 271 10 G 14 73° 67% - - 62° 74.7° 61.9° - - -
6/27 12:20pm 265 10 G 14 73° 68% - - 62° 74.7° 61.9° - - -
6/27 12:10pm 271 10 G 14 73° 69% - - 62° 74.7° 61.9° - - -
6/27 12:00pm 271 9 G 13 73° 68% - - 62° 74.7° 61.9° - - -
6/27 11:50am 258 8 G 13 73° 68% - - 62° 74.7° 61.9° - - -
6/27 11:40am 262 8 G 11 73° 68% - - 62° 74.7° 61.9° - - -
6/27 11:30am 256 8 G 12 73° 69% - - 62° 74.7° 61.9° - - -
6/27 11:20am 261 8 G 11 72° 71% - - 62° 74.7° 61.9° - - -
6/27 11:10am 262 8 G 12 72° 70% - - 62° 74.7° 61.9° - - -
6/27 11:00am 256 8 G 11 72° 70% - - 62° 74.7° 61.9° - - -
6/27 10:50am 250 7 G 11 73° 67% - - 62° 74.7° 61.9° - - -
6/27 10:40am 258 6 G 9 73° 67% - - 62° 74.7° 61.9° - - -
6/27 10:30am 260 6 G 8 72° 68% - - 61° 74.7° 61.9° - - -
6/27 10:20am 264 5 G 8 72° 69% - - 62° 74.7° 61.9° - - -
6/27 10:10am 276 6 G 9 72° 71% - - 62° 74.7° 61.9° - - -
6/27 10:00am 258 7 G 10 71° 72% - - 62° 74.7° 61.9° - - -
6/27 9:50am 263 7 G 11 71° 71% - - 61° 74.7° 61.9° - - -
6/27 9:40am 261 7 G 10 72° 70% - - 62° 74.7° 61.9° - - -
6/27 9:30am 269 8 G 11 72° 72% - - 63° 74.7° 61.9° - - -
6/27 9:20am 268 7 G 11 72° 73% - - 63° 74.7° 61.9° - - -
6/27 9:10am 253 6 G 9 73° 71% - - 63° 74.7° 61.9° - - -
6/27 8:50am 250 5 G 8 74° 67% - - 62° 74.7° 61.9° - - -
6/27 8:40am 266 3 G 5 73° 67% - - 62° 73.7° 61.9° - - -
6/27 8:30am 262 2 G 4 72° 68% - - 61° 73.2° 61.9° - - -
6/27 8:20am 279 2 G 4 72° 71% - - 62° 72.3° 61.9° - - -
6/27 8:10am 289 1 G 2 71° 74% - - 62° 72° 61.9° - - -
6/27 8:00am 316 2 G 3 71° 74% - - 62° 71.5° 61.9° - - -
6/27 7:50am 339 2 G 3 70° 72% - - 61° 71° 61.9° - - -
6/27 7:40am 353 2 G 3 70° 68% - - 59° 70.9° 61.9° - - -
6/27 7:30am 50 0 G 1 69° 65% - - 57° 70.5° 61.9° - - -
6/27 7:20am 86 1 G 3 68° 65% - - 55° 68.7° 61.9° - - -
6/27 7:10am 94 2 G 3 67° 66% - - 55° 68.7° 61.9° - - -
6/27 7:00am 96 2 G 3 65° 68% - - 55° 68.7° 61.9° - - -
6/27 6:50am 87 3 G 4 64° 72% - - 55° 68.7° 61.9° - - -
6/27 6:40am 83 3 G 4 64° 74% - - 55° 68.7° 61.9° - - -
6/27 6:30am 108 2 G 3 63° 76% - - 56° 68.7° 61.9° - - -
6/27 6:20am 100 3 G 4 63° 77% - - 55° 68.7° 61.9° - - -
6/27 6:10am 116 2 G 3 62° 78% - - 56° 68.7° 61.9° - - -
6/27 6:00am 84 3 G 4 62° 79% - - 56° 68.7° 61.9° - - -
6/27 5:50am 84 4 G 5 63° 78% - - 56° 68.7° 62° - - -
6/27 5:40am 103 3 G 5 62° 76% - - 55° 68.7° 62° - - -
6/27 5:30am 94 3 G 4 63° 76% - - 55° 68.7° 62.1° - - -
6/27 5:20am 104 3 G 4 63° 78% - - 56° 68.7° 62.2° - - -
6/27 5:10am 121 2 G 3 63° 79% - - 57° 68.7° 62.7° - - -
6/27 5:00am 106 2 G 3 63° 79% - - 56° 68.7° 62.7° - - -
6/27 4:50am 110 1 G 2 63° 78% - - 56° 68.7° 62.8° - - -
6/27 4:40am 108 2 G 3 64° 79% - - 57° 68.7° 63.1° - - -
6/27 4:30am 113 2 G 2 64° 79% - - 57° 68.7° 63.3° - - -
6/27 4:20am 110 2 G 2 64° 77% - - 57° 68.7° 63.3° - - -
6/27 4:10am 116 1 G 2 64° 76% - - 56° 68.7° 63.3° - - -
6/27 4:00am 95 1 G 2 64° 76% - - 56° 68.7° 63.5° - - -
6/27 3:50am 117 1 G 4 64° 75% - - 56° 68.7° 63.6° - - -
6/27 3:40am 104 3 G 4 64° 75% - - 56° 68.7° 63.8° - - -
6/27 3:30am 102 4 G 4 64° 75% - - 56° 68.7° 63.8° - - -
6/27 3:20am 102 4 G 5 64° 75% - - 56° 68.7° 63.8° - - -
6/27 3:10am 97 5 G 6 64° 76% - - 57° 68.7° 63.8° - - -
6/27 3:00am 107 4 G 6 64° 77% - - 57° 68.7° 63.9° - - -
6/27 2:50am 98 5 G 6 65° 77% - - 57° 68.7° 64.3° - - -
6/27 2:40am 94 4 G 5 65° 78% - - 58° 68.7° 64.3° - - -
6/27 2:30am 99 3 G 4 65° 79% - - 58° 68.7° 64.3° - - -
6/27 2:20am 126 2 G 3 65° 79% - - 58° 68.7° 64.3° - - -
6/27 2:10am 111 2 G 3 66° 80% - - 60° 68.7° 65.1° - - -
6/27 2:00am 81 3 G 3 66° 80% - - 60° 68.7° 65.8° - - -
6/27 1:50am 99 2 G 3 66° 79% - - 60° 68.7° 65.8° - - -
6/27 1:40am 141 1 G 2 66° 79% - - 60° 68.7° 65.8° - - -
6/27 1:30am 154 0 G 2 67° 79% - - 60° 68.7° 66° - - -
6/27 1:20am 219 1 G 2 67° 78% - - 60° 68.7° 66.2° - - -
6/27 1:10am 208 0 G 1 67° 79% - - 60° 68.7° 66.3° - - -
6/27 1:00am 2 0 G 0 67° 79% - - 60° 68.7° 66.4° - - -
6/27 12:50am 335 1 G 1 67° 79% - - 60° 68.7° 66.5° - - -
6/27 12:40am 145 1 G 2 67° 78% - - 60° 68.7° 66.7° - - -
6/27 12:30am 215 1 G 1 68° 78% - - 61° 68.7° 67.3° - - -
6/27 12:20am 323 1 G 1 68° 78% - - 61° 68.7° 67.5° - - -
6/27 12:10am 71 3 G 5 68° 78% - - 61° 68.7° 67.7° - - -
6/27 12:00am 89 5 G 7 68° 78% - - 61° 77.7° 62° - - -
6/26 11:50pm 94 5 G 7 68° 79% - - 61° 77.7° 62° - - -
6/26 11:40pm 96 5 G 7 68° 78% - - 61° 77.7° 62° - - -
6/26 11:30pm 99 4 G 5 68° 78% - - 61° 77.7° 62° - - -
6/26 11:20pm 115 3 G 5 69° 79% - - 62° 77.7° 62° - - -
6/26 11:10pm 114 2 G 4 69° 80% - - 63° 77.7° 62° - - -
6/26 11:00pm 102 2 G 4 69° 82% - - 63° 77.7° 62° - - -
6/26 10:50pm 83 2 G 3 69° 82% - - 64° 77.7° 62° - - -
6/26 10:40pm 51 0 G 1 69° 83% - - 63° 77.7° 62° - - -
6/26 10:30pm 0 0 G 0 69° 82% - - 64° 77.7° 62° - - -
6/26 10:20pm 222 0 G 1 70° 82% - - 64° 77.7° 62° - - -
6/26 10:10pm 265 2 G 2 70° 81% - - 64° 77.7° 62° - - -
6/26 10:00pm 271 2 G 3 70° 81% - - 64° 77.7° 62° - - -
6/26 9:50pm 274 3 G 4 70° 81% - - 64° 77.7° 62° - - -
6/26 9:40pm 254 2 G 3 70° 80% - - 64° 77.7° 62° - - -
6/26 9:30pm 251 3 G 4 71° 79% - - 64° 77.7° 62° - - -
6/26 9:20pm 240 2 G 3 71° 79% - - 64° 77.7° 62° - - -
6/26 9:10pm 256 2 G 3 70° 79% - - 64° 77.7° 62° - - -
6/26 9:00pm 285 1 G 2 71° 79% - - 64° 77.7° 62° - - -
6/26 8:50pm 236 1 G 2 71° 79% - - 64° 77.7° 62° - - -
6/26 8:40pm 270 2 G 3 71° 78% - - 64° 77.7° 62° - - -
6/26 8:30pm 246 2 G 3 71° 77% - - 64° 77.7° 62° - - -
6/26 8:20pm 239 2 G 3 71° 77% - - 64° 77.7° 62° - - -
6/26 8:10pm 251 3 G 4 71° 77% - - 64° 77.7° 62° - - -
6/26 8:00pm 242 3 G 4 71° 76% - - 64° 77.7° 62° - - -
6/26 7:50pm 245 4 G 5 72° 75% - - 64° 77.7° 62° - - -
6/26 7:40pm 247 4 G 6 72° 74% - - 63° 77.7° 62° - - -
6/26 7:30pm 253 4 G 6 73° 72% - - 63° 77.7° 62° - - -
6/26 7:20pm 265 4 G 7 73° 70% - - 63° 77.7° 62° - - -
6/26 7:10pm 275 6 G 8 74° 66% - - 62° 77.7° 62° - - -
6/26 7:00pm 268 5 G 8 74° 65% - - 62° 77.7° 62° - - -
6/26 6:50pm 254 6 G 9 74° 65% - - 62° 77.7° 62° - - -
6/26 6:40pm 258 6 G 9 74° 64% - - 62° 77.7° 62° - - -
6/26 6:30pm 267 6 G 9 75° 63% - - 61° 77.7° 62° - - -
6/26 6:20pm 266 6 G 9 75° 62% - - 61° 77.7° 62° - - -
6/26 6:10pm 273 6 G 10 75° 61% - - 61° 77.7° 62° - - -
6/26 6:00pm 258 7 G 10 75° 61% - - 61° 77.7° 62° - - -
6/26 5:50pm 253 6 G 11 76° 61% - - 61° 77.7° 62° - - -
6/26 5:40pm 263 7 G 10 76° 61% - - 61° 77.7° 62° - - -
6/26 5:30pm 256 6 G 10 76° 60% - - 61° 77.7° 62° - - -
6/26 5:20pm 255 6 G 10 77° 58% - - 61° 77.7° 62° - - -
6/26 5:10pm 262 7 G 10 76° 59% - - 61° 77.7° 62° - - -
6/26 5:00pm 263 7 G 12 76° 60% - - 61° 77.7° 62° - - -
6/26 4:50pm 268 8 G 12 76° 60% - - 61° 77.7° 62° - - -
6/26 4:40pm 254 9 G 12 76° 59% - - 61° 77.7° 62° - - -
6/26 4:30pm 259 7 G 11 77° 58% - - 61° 77.7° 62° - - -
6/26 4:20pm 262 7 G 11 77° 59% - - 61° 77.7° 62° - - -
6/26 4:10pm 270 8 G 11 76° 60% - - 61° 77.6° 62° - - -
6/26 4:00pm 263 7 G 10 76° 60% - - 61° 77.6° 62° - - -
6/26 3:50pm 260 7 G 11 76° 60% - - 61° 77.6° 62° - - -
6/26 3:40pm 260 8 G 11 76° 60% - - 62° 77.6° 62° - - -
6/26 3:30pm 261 8 G 10 76° 60% - - 61° 77.3° 62° - - -
6/26 3:20pm 255 7 G 11 76° 61% - - 62° 77.2° 62° - - -
6/26 3:10pm 257 8 G 12 76° 62% - - 62° 76.6° 62° - - -
6/26 3:00pm 248 8 G 12 76° 62% - - 62° 76.6° 62° - - -
6/26 2:50pm 256 7 G 10 76° 63% - - 62° 76.5° 62° - - -
6/26 2:40pm 264 8 G 11 75° 63% - - 62° 76.5° 62° - - -
6/26 2:30pm 265 7 G 11 75° 63% - - 62° 76.5° 62° - - -
6/26 2:20pm 260 8 G 12 76° 63% - - 62° 76.3° 62° - - -
6/26 2:10pm 260 7 G 11 75° 64% - - 62° 76.3° 62° - - -
6/26 2:00pm 258 6 G 9 75° 64% - - 62° 76.3° 62° - - -
6/26 1:50pm 266 6 G 9 75° 65% - - 62° 76.3° 62° - - -
6/26 1:40pm 266 7 G 11 75° 64% - - 62° 76.3° 62° - - -
6/26 1:30pm 261 6 G 9 75° 64% - - 62° 75.7° 62° - - -
6/26 1:20pm 252 7 G 9 74° 66% - - 62° 75.2° 62° - - -
6/26 1:10pm 269 6 G 9 73° 66% - - 61° 75.2° 62° - - -
6/26 1:00pm 265 6 G 10 74° 67% - - 62° 75.2° 62° - - -
6/26 12:50pm 276 7 G 12 73° 67% - - 62° 74.6° 62° - - -
6/26 12:40pm 272 7 G 10 73° 68% - - 62° 74.2° 62° - - -
6/26 12:30pm 273 7 G 13 73° 69% - - 62° 74.2° 62° - - -
6/26 12:20pm 268 7 G 13 73° 69% - - 62° 74.2° 62° - - -
6/26 12:10pm 255 7 G 11 73° 68% - - 62° 74.2° 62° - - -
6/26 12:00pm 269 6 G 9 73° 68% - - 62° 74.2° 62° - - -
6/26 11:50am 269 6 G 11 72° 69% - - 62° 73.6° 62° - - -
6/26 11:40am 260 7 G 11 72° 69% - - 62° 73.6° 62° - - -
6/26 11:30am 279 7 G 11 72° 70% - - 61° 73.5° 62° - - -
6/26 11:20am 265 7 G 11 72° 69% - - 61° 73.5° 62° - - -
6/26 11:10am 259 8 G 11 72° 69% - - 61° 73.5° 62° - - -
6/26 11:00am 257 7 G 11 72° 69% - - 61° 73.5° 62° - - -
6/26 10:50am 263 7 G 10 71° 71% - - 61° 72.1° 62° - - -
6/26 10:40am 266 8 G 12 70° 72% - - 61° 71.2° 62° - - -
6/26 10:30am 266 8 G 11 70° 74% - - 61° 71.2° 62° - - -
6/26 10:20am 255 6 G 10 69° 74% - - 61° 71.2° 62° - - -
6/26 10:10am 260 7 G 11 69° 76% - - 61° 71.2° 62° - - -
6/26 10:00am 263 7 G 11 68° 77% - - 61° 71.2° 62° - - -
6/26 9:50am 256 8 G 11 69° 76% - - 61° 71.2° 62° - - -
6/26 9:40am 254 8 G 12 69° 75% - - 61° 71.2° 62° - - -
6/26 9:30am 260 9 G 13 69° 75% - - 61° 71.2° 62° - - -
6/26 9:20am 257 9 G 13 69° 77% - - 61° 71.2° 62° - - -
6/26 9:10am 254 8 G 12 69° 76% - - 61° 71.2° 62° - - -
6/26 9:00am 255 6 G 11 69° 77% - - 61° 71.2° 62° - - -
6/26 8:50am 238 7 G 10 69° 77% - - 61° 71.2° 62° - - -
6/26 8:40am 231 7 G 11 70° 74% - - 62° 71.2° 62° - - -
6/26 8:30am 239 5 G 8 70° 76% - - 62° 70.9° 62° - - -
6/26 8:20am 241 3 G 7 70° 77% - - 62° 70.4° 62° - - -
6/26 8:10am 227 3 G 5 70° 76% - - 62° 70.1° 62° - - -
6/26 8:00am 241 3 G 5 69° 75% - - 61° 69.9° 62° - - -
6/26 7:50am 260 3 G 4 69° 74% - - 60° 69.4° 62° - - -
6/26 7:40am 242 2 G 4 68° 74% - - 60° 68.9° 62° - - -
6/26 7:30am 265 2 G 5 68° 75% - - 60° 68.9° 62° - - -
6/26 7:20am 355 1 G 2 68° 75% - - 60° 68.9° 62° - - -
6/26 7:10am 9 1 G 2 67° 77% - - 60° 68.1° 62° - - -
6/26 7:00am 345 1 G 2 66° 79% - - 59° 67.1° 62° - - -
6/26 6:50am 350 1 G 2 65° 79% - - 59° 66° 62° - - -
6/26 6:40am 360 1 G 2 65° 80% - - 58° 65.4° 62° - - -
6/26 6:30am 118 0 G 1 64° 81% - - 58° 65.4° 62° - - -
6/26 6:20am 273 0 G 1 64° 82% - - 58° 65.4° 62° - - -
6/26 6:10am 133 1 G 3 64° 82% - - 58° 65.4° 62° - - -
6/26 6:00am 98 2 G 3 63° 83% - - 58° 65.4° 62° - - -